Location: The Saddle
(36.8333°N, 80.3417°W)
Time: 15:53:27
(UTC-05:00)

Courier 1B Rocket - All Passes

Search period start: 30 January 2023 00:00
Search period end: 09 February 2023 00:00
Orbit: 920 x 1202 km, 28.3° (Epoch: 30 January)

Date Brightness Start Highest point End Pass type
(mag) Time Alt. Az. Time Alt. Az. Time Alt. Az.
30 Jan - 00:48:38 10° SW 00:51:29 13° SSW 00:54:23 10° S night (unlit)
30 Jan - 16:17:53 10° SSE 16:19:33 11° SSE 16:21:13 10° SE daylight
30 Jan - 18:06:54 10° SW 18:12:03 27° SSE 18:17:20 10° ESE visible
30 Jan - 19:59:02 10° WSW 20:04:50 39° S 20:10:55 10° ESE visible
30 Jan - 21:52:02 10° WSW 21:57:45 33° SSW 22:03:48 10° SE visible
30 Jan - 23:46:20 10° WSW 23:50:33 17° SSW 23:54:57 10° SSE night (unlit)
31 Jan - 17:06:38 10° SSW 17:11:15 22° SSE 17:15:54 10° ESE daylight
31 Jan - 18:58:17 10° WSW 19:03:56 37° S 19:09:47 10° ESE visible
31 Jan - 20:51:04 10° WSW 20:56:49 36° S 21:02:52 10° ESE visible
31 Jan - 22:44:45 10° WSW 22:49:38 22° SSW 22:54:47 10° SSE night (unlit)
01 Feb - 16:06:42 10° SSW 16:10:28 16° SSE 16:14:13 10° ESE daylight
01 Feb - 17:57:37 10° SW 18:03:05 32° SSE 18:08:37 10° ESE daylight
01 Feb - 19:50:10 10° WSW 19:55:54 38° S 20:01:52 10° ESE visible
01 Feb - 21:43:29 10° WSW 21:48:45 27° SSW 21:54:16 10° SE visible
01 Feb - 23:39:29 10° SW 23:41:27 11° SSW 23:43:26 10° S night (unlit)
02 Feb - 15:07:39 10° S 15:09:42 12° SSE 15:11:44 10° SE daylight
02 Feb - 16:57:04 10° SW 17:02:15 28° SSE 17:07:26 10° ESE daylight
02 Feb - 18:49:18 10° WSW 18:55:01 38° S 19:00:51 10° ESE visible
02 Feb - 20:42:24 10° WSW 20:47:52 31° SSW 20:53:34 10° SE visible
02 Feb - 22:36:51 10° WSW 22:40:35 16° SSW 22:44:25 10° S night (unlit)
03 Feb - 15:56:40 10° SSW 16:01:26 22° SSE 16:06:07 10° ESE daylight
03 Feb - 17:48:30 10° WSW 17:54:08 36° S 17:59:50 10° ESE daylight
03 Feb - 19:41:23 10° WSW 19:46:59 35° S 19:52:45 10° SE visible
03 Feb - 21:35:11 10° WSW 21:39:43 21° SSW 21:44:25 10° SSE visible
04 Feb - 14:56:36 10° SSW 15:00:38 17° SSE 15:04:35 10° ESE daylight
04 Feb - 16:47:44 10° SW 16:53:17 33° S 16:58:47 10° ESE daylight
04 Feb - 18:40:25 10° WSW 18:46:07 38° S 18:51:52 10° ESE visible
04 Feb - 20:33:51 10° WSW 20:38:53 25° SSW 20:44:04 10° SE visible
04 Feb - 22:31:18 10° SSW 22:31:29 10° SSW 22:31:41 10° SSW night (unlit)
05 Feb - 13:57:10 10° S 13:59:49 13° SSE 14:02:25 10° SE daylight
05 Feb - 15:47:05 10° SW 15:52:27 28° SSE 15:57:41 10° ESE daylight
05 Feb - 17:39:29 10° WSW 17:45:14 38° S 17:50:57 10° ESE daylight
05 Feb - 19:32:41 10° WSW 19:38:03 30° SSW 19:43:29 10° SE visible
05 Feb - 21:27:23 10° WSW 21:30:40 15° SSW 21:34:01 10° S visible
06 Feb - 14:46:33 10° SSW 14:51:36 23° SSE 14:56:28 10° ESE daylight
06 Feb - 16:38:35 10° WSW 16:44:22 37° S 16:50:01 10° ESE daylight
06 Feb - 18:31:37 10° WSW 18:37:11 34° S 18:42:47 10° SE visible
06 Feb - 20:25:34 10° WSW 20:29:52 19° SSW 20:34:15 10° SSE visible
07 Feb - 13:46:18 10° SSW 13:50:45 19° SSE 13:55:01 10° ESE daylight
07 Feb - 15:37:42 10° SW 15:43:29 34° S 15:49:03 10° ESE daylight
07 Feb - 17:30:34 10° WSW 17:36:20 37° S 17:42:00 10° ESE daylight
07 Feb - 19:24:08 10° WSW 19:29:03 25° SSW 19:34:02 10° SE visible
08 Feb - 12:46:34 10° S 12:49:53 14° SSE 12:53:06 10° SE daylight
08 Feb - 14:36:55 10° SW 14:42:36 30° SSE 14:48:01 10° ESE daylight
08 Feb - 16:29:31 10° WSW 16:35:27 39° S 16:41:11 10° ESE daylight
08 Feb - 18:22:53 10° WSW 18:28:15 30° SSW 18:33:35 10° SE visible
08 Feb - 20:17:51 10° SW 20:20:49 14° SSW 20:23:47 10° S visible
